Weather in Mountain View

United States     37°23′09″N   122°05′02″W
temp.,
°C
wind,
m/s
gust,
m/s
humid.,
%
clouds,
%
prec.,
mm/h
press.,
hPa
HPBL,
m
26 june, sun
sun2623:00+19nw22530 0.0 1014199
02:00+17nnw11610 0.0 1015145
05:00+16nw12640 0.0 1015117
08:00+19nw11500 0.0 1016214
11:00+27wnw22240 0.0 1016469
14:00+31nw44200 0.0 1015597
17:00+30nw55240 0.0 1015546
20:00+24nw33360 0.0 1015314
27 june, mon
mon2723:00+20nw23490 0.0 1016191
02:00+18nw12570 0.0 1016189
05:00+17nw11631 0.0 1016130
08:00+20wnw12515 0.0 1017272
11:00+27nw33270 0.0 1017512
14:00+30nw55191 0.0 1016629
17:00+29nw571818 0.0 1016584
20:00+24nw36250 0.0 1017438
28 june, tue
tue2823:00+21wnw13340 0.0 1017263
02:00+19sw11380 0.0 101797
05:00+18sw11420 0.0 101734
08:00+21wnw12340 0.0 1017253
11:00+28nw33170 0.0 1017553
14:00+31nw56120 0.0 1016777
17:00+29wnw56160 0.0 1015774
20:00+24wnw34260 0.0 1015446
29 june, wed
wed2923:00+19w23440 0.0 1016287
02:00+17w22550 0.0 1015244
05:00+15wnw12620 0.0 1014189
08:00+18w11510 0.0 1015315
11:00+25wnw32290 0.0 1015609
14:00+27nw44280 0.0 1014654
17:00+24nw55350 0.0 1014590
20:00+20wnw34490 0.0 1015504
30 june, thu
thu3023:00+16w22640 0.0 1016331
02:00+15w12680 0.0 1016264
05:00+14wsw12700 0.0 1016258
08:00+16w12620 0.0 1017473
11:00+21nw33420 0.0 1017726
14:00+24nw55380 0.0 1017763
17:00+22nw56420 0.0 1017717
20:00+17nw44600 0.0 1018577